GORIZONT 9 [-]

Last updated on Aug. 14, 2020, 5:30 a.m. UTC

1 14940U 84041A   20226.78711735 -.00000126  00000-0  00000+0 0  9995
2 14940  12.6489 329.8237 0002293 208.5904 146.9431  1.00223440100632
UTC
Height (km)
Latitude
Longitude
Inclination
Orbital Period
UTC large
Height (km)
Speed (km/s)
/
Latitude / Longitude
Inclination (degrees)
Orbital Period (minutes)
Azimuth
Elevation
Range (km)
Doppler Factor
iOS Compass Heading
iOS Angle

Next 30 passes for location: Hong Kong

Rise time Rise Azimuth (degrees) Set time Set Azimuth (degrees) Duration Max altitude (degrees)

No matching passes for this satellites